Location: Newark
(34.6283°N, 36.0776°E)
Time: 16:46:04
(UTC+00:00)

A-11 Canister half - Pass Details

Date: 20 September 2019
Orbit: 1527 x 1682 km, 47.3° (Epoch: 22 October)

Event Time Altitude Azimuth Distance (km) Brightness Sun altitude
Rises 04:25:52 0° 285° (WNW) 4,727 10.9 12.3°
Reaches altitude 10° 04:29:15 10° 293° (WNW) 3,763 10.5 13.0°
Maximum altitude 04:38:01 39° 360° (N) 2,258 10.0 14.8°
Drops below altitude 10° 04:47:05 10° 66° (ENE) 3,877 12.2 16.6°
Sets 04:50:37 0° 74° (ENE) 4,884 12.8 17.3°
